Location: Unsp...
(0.0000°N, 0.0000°E)
Time: 14:33:42
(UTC+02:00)

Daily predictions for brighter satellites

Satellite Brightness Start Highest point End
(mag) Time Altitude Azimuth Time Altitude Azimuth Time Altitude Azimuth
Cosmos 44 Rocket 3.3 20:14:55 10° NNW 20:19:51 75° ENE 20:24:38 10° SSE
Cosmos 1371 Rocket 4.0 20:16:05 10° N 20:21:22 76° ENE 20:26:36 10° SSE
GPS 2-18 Rocket1 3.5 20:19:21 10° SW 20:22:57 42° SSE 20:26:30 10° E
Cosmos 1536 Rocket 4.4 20:20:54 10° SSW 20:25:19 58° W 20:29:42 10° N
Cosmos 2056 Rocket 3.6 20:21:19 10° N 20:26:20 56° ENE 20:31:20 10° SSE
Cosmos 44 4.4 20:23:43 10° NNE 20:27:43 25° ENE 20:31:31 10° ESE
Delta 2 Rocket 3.1 20:24:18 10° WNW 20:27:43 60° SW 20:31:01 10° SE
NOSS 3-4 (A) 4.1 20:22:09 10° N 20:29:27 58° ENE 20:36:58 10° SE
NOSS 3-4 (C) 4.1 20:22:16 10° N 20:29:34 57° ENE 20:37:04 10° SE
Cosmos 2263 Rocket 2.2 20:23:59 10° N 20:29:35 78° ENE 20:35:10 10° SSE
Cosmos 1400 Rocket 4.1 20:26:36 10° NE 20:29:37 21° E 20:32:40 10° SE
Cosmos 1242 Rocket 2.7 20:26:21 10° S 20:29:57 53° E 20:33:34 10° NNE
Cosmos 1536 2.8 20:30:49 10° N 20:34:53 89° ESE 20:38:55 10° S
OAO 2 Rocket 4.5 20:32:14 10° NNW 20:36:57 32° NE 20:41:12 12° E
ARIANE 3 DEB 2.5 20:36:20 10° WSW 20:38:34 43° S 20:41:14 14° ESE
Cosmos 1844 Rocket 4.4 20:40:08 10° NE 20:42:37 13° ENE 20:44:07 12° E
Cosmos 2061 Rocket 4.0 20:38:01 10° N 20:44:22 69° E 20:50:45 10° S
ERBS 4.3 20:43:03 10° NNE 20:45:08 15° ENE 20:46:09 14° E
SJ-6B 2.6 20:41:30 10° SSE 20:45:12 63° E 20:48:54 10° N
Helios 1A 3.3 20:41:25 10° SSE 20:45:26 46° ENE 20:49:28 10° N
Meteor 1-28 Rocket 3.9 20:43:18 10° N 20:46:58 56° W 20:50:37 10° SSW
Cosmos 494 Rocket 4.4 20:42:31 10° S 20:47:18 39° ESE 20:52:02 10° NE
Cosmos 1633 2.7 20:44:47 10° N 20:48:23 78° W 20:52:02 10° S
Cosmos 2173 Rocket 3.9 20:43:02 10° N 20:49:11 75° E 20:55:27 10° S
Cosmos 2237 Rocket 4.1 20:46:01 10° SW 20:51:01 33° WNW 20:56:01 10° NNW
GPS 2-12 Rocket1 3.1 20:47:02 10° WNW 20:51:52 82° NNE 20:55:10 20° ESE
MSX 3.8 20:46:28 10° SSE 20:52:13 84° ENE 20:57:58 10° N
CZ-4B DEB 4.5 20:55:39 18° ENE 20:55:39 18° ENE 20:57:48 10° NNE
IDEFIX/ARIANE 42P 3.6 20:52:56 10° S 20:57:53 47° WSW 21:02:52 10° NNW
BLOCK DM-SL R/B 2.1 20:59:38 10° W 21:02:10 82° S 21:04:46 23° E
HJ-1C 3.6 21:01:27 29° SE 21:02:42 44° E 21:05:51 10° N
Cosmos 1802 Rocket 4.0 20:59:17 10° N 21:05:26 89° W 21:11:38 10° S
Cosmos 1356 3.4 21:03:28 10° N 21:06:58 61° E 21:08:37 28° SSE
Meteor 2-15 Rocket 4.4 21:01:03 10° S 21:07:10 89° W 21:13:14 10° N
H-2A R/B 3.5 20:37:44 10° SW 21:08:12 50° SSE 21:11:44 25° E
ALOS 4.4 21:10:03 11° NE 21:10:03 11° NE 21:10:23 10° NE
Ariane H10+ 1.7 21:07:05 10° WSW 21:09:11 22° SSW 21:09:11 22° SSW
ARIANE 5 R/B 1.7 21:08:55 10° W 21:11:12 66° S 21:13:06 31° ESE
ISS -1.0 21:08:56 10° WSW 21:11:44 26° NW 21:14:31 10° N
ATLAS 3B R/B 4.0 21:07:24 10° SSE 21:19:00 10° ENE 21:19:02 10° ENE
Ariane H10 3.1 21:10:34 10° WNW 21:13:19 42° N 21:19:03 15° ENE
Cosmos 1455 Rocket 3.9 21:10:50 10° NNW 21:15:09 52° W 21:19:28 10° S
XTE 2.9 21:15:05 10° WNW 21:18:12 79° SSW 21:18:17 78° S
SL-16 R/B 3.1 21:13:10 10° SSW 21:18:37 50° WNW 21:24:04 10° N
COSMOS 2455 3.1 21:15:25 10° S 21:21:02 42° ESE 21:26:39 10° NE
Cosmos 2278 Rocket 4.1 21:18:40 10° NE 21:20:01 13° NE 21:20:01 13° NE
ARIANE 5 R/B 2.3 21:19:42 10° WNW 21:22:19 49° NNE 21:25:34 26° ENE
Aureole 2 Rocket 2.8 21:21:03 10° S 21:25:29 81° ESE 21:29:39 10° NNE
Sakura Rocket 3.2 21:24:25 10° WNW 21:28:00 50° SSW 21:28:32 46° S
Cosmos 1975 2.7 21:24:45 10° N 21:28:34 64° ENE 21:28:34 64° ENE
Ariane 42L R/B 3.6 21:19:18 10° W 21:29:44 38° SSW 21:30:36 35° S
Cosmos 2084 Rocket 3.5 21:26:27 10° NNW 21:30:49 87° WSW 21:31:51 53° SSE
deb Chang Zheng 4 4.1 21:31:21 10° NNE 21:34:25 42° NE 21:34:25 42° NE
Cosmos 1452 Rocket 3.8 21:30:34 10° NNW 21:35:46 65° WSW 21:38:46 25° S
Meteor 1-23 Rocket 4.0 21:33:35 19° S 21:37:36 73° E 21:43:11 10° N
BLOCK DM-SL R/B 3.5 12:57:28 10° W 21:38:44 78° N 21:41:00 41° ENE
OAO 1 Rocket 4.3 21:38:28 10° SW 21:43:47 90° SE 21:44:42 62° NE
RESURS DK-1 2.7 21:42:54 10° NNW 21:46:20 60° NNW 21:46:20 60° NNW
Cosmos 1603 3.6 21:41:53 10° SSW 21:47:34 87° WNW 21:53:12 10° NNE
Resurs 01 Rocket 3.2 21:44:46 15° SSW 21:47:54 32° WSW 21:51:50 10° NW
Delta 7925 Rocket 3.4 21:43:12 10° WSW 21:47:11 58° SW 21:47:11 58° SW
FengYun 1-2 T 4.1 21:49:31 57° S 21:50:43 87° WSW 21:56:14 10° NNW
Cosmos 1725 Rocket 4.3 21:45:49 10° NNW 21:51:56 64° W 21:56:01 22° SSW
Cosmos 1315 Rocket 4.3 21:49:09 10° NNW 21:52:48 34° W 21:53:41 30° WSW
Meteor 2-4 Rocket 4.0 21:52:41 13° SSW 21:57:45 65° W 22:03:30 10° N
Cosmos 2098 Rocket 3.7 21:58:31 10° N 22:02:17 63° NNW 22:02:17 63° NNW
Nimbus 7 Rocket 4.3 21:57:25 10° NNE 22:02:56 80° NNE 22:02:56 80° NNE
Cosmos 1844 Rocket 3.7 22:21:01 10° NW 22:25:51 40° W 22:25:51 40° W
ATLAS 3B R/B 4.1 22:56:37 10° SW 23:05:42 36° NNW 23:10:50 10° N
ATLAS 3B CENTAUR R/B 3.9 23:01:31 10° NW 23:05:36 50° NNW 23:05:36 50° NNW
